Погода в Масали

Россия / Тюменская область     56°04′27″N   66°34′05″E
темп.,
°C
ветер,
м/с
пор.,
м/с
влажн.,
%
обл.,
%
осадки,
мм/ч
давл.,
гПа
погр.,
м
4 июля, пн
пн423:00+13с2391100 2.1 100539
02:00+13св499596 0.9 1004266
05:00+12ссв5119899 1.3 1004422
08:00+12ссв6996100 0.8 1005596
11:00+11ссв71295100 1.1 1005572
14:00+11ссв71391100 0.4 1005669
17:00+12ссв61283100 0.4 1004725
20:00+12ссв7128198 0.0 1004778
5 июля, вт
вт523:00+12ссв71282100 0.0 1004730
02:00+10с7149055 0.0 1003587
05:00+10с71388100 0.0 1004601
08:00+12с8138395 0.0 1004799
11:00+14с7117477 0.0 10051094
14:00+15с7116897 0.0 10061311
17:00+14ссв61271100 0.1 1007829
20:00+13с41071100 0.0 1008341
6 июля, ср
ср623:00+12ссз41076100 0.0 1008284
02:00+12сз4875100 0.0 1008229
05:00+9ссз388997 0.0 1009147
08:00+12ссз4882100 0.0 1010257
11:00+12ссз3884100 0.1 1011336
14:00+14с3682100 0.1 1012391
17:00+17св357699 0.1 1012676
20:00+15ссв018730 0.1 101312
7 июля, чт
чт723:00+14ссв228999 0.1 101334
02:00+13ссв229084 0.0 101428
05:00+13ссв2390100 0.0 101585
08:00+15ссв3686100 0.0 1015249
11:00+18ссв2580100 0.0 1016447
14:00+22св446313 0.4 10151322
17:00+22св34625 0.5 10161152
20:00+19всв35845 0.7 101688
8 июля, пт
пт823:00+15всв228746 0.7 101712
02:00+14ссв22870 0.0 101610
05:00+14ссз338936 0.0 101732
08:00+17ссз248598 0.0 1017160
11:00+21св236480 0.0 1017589
14:00+23св23546 0.0 10161542
17:00+24ссв125353 0.0 10161299
20:00+21ю11717 0.0 101611